Year,Month,Day,Hour,Minute,Value (Times are PST for temperature in C)
2016,07,13,00,00,16.50
2016,07,13,00,01,16.50
2016,07,13,00,02,16.50
2016,07,13,00,03,16.50
2016,07,13,00,04,16.50
2016,07,13,00,05,16.50
2016,07,13,00,06,16.40
2016,07,13,00,07,16.50
2016,07,13,00,08,16.40
2016,07,13,00,09,16.40
2016,07,13,00,10,16.40
2016,07,13,00,11,16.40
2016,07,13,00,12,16.40
2016,07,13,00,13,16.40
2016,07,13,00,14,16.40
2016,07,13,00,15,16.40
2016,07,13,00,16,16.40
2016,07,13,00,17,16.40
2016,07,13,00,18,16.40
2016,07,13,00,19,16.40
2016,07,13,00,20,16.40
2016,07,13,00,21,16.40
2016,07,13,00,22,16.40
2016,07,13,00,23,16.40
2016,07,13,00,24,16.40
2016,07,13,00,25,16.40
2016,07,13,00,26,16.40
2016,07,13,00,27,16.40
2016,07,13,00,28,16.40
2016,07,13,00,29,16.40
2016,07,13,00,30,16.40
2016,07,13,00,31,16.40
2016,07,13,00,32,16.40
2016,07,13,00,33,16.40
2016,07,13,00,34,16.40
2016,07,13,00,35,16.40
2016,07,13,00,36,16.40
2016,07,13,00,37,16.40
2016,07,13,00,38,16.40
2016,07,13,00,39,16.40
2016,07,13,00,40,16.40
2016,07,13,00,41,16.40
2016,07,13,00,42,16.40
2016,07,13,00,43,16.40
2016,07,13,00,44,16.40
2016,07,13,00,45,16.40
2016,07,13,00,46,16.40
2016,07,13,00,47,16.40
2016,07,13,00,48,16.40
2016,07,13,00,49,16.40
2016,07,13,00,50,16.40
2016,07,13,00,51,16.40
2016,07,13,00,52,16.40
2016,07,13,00,53,16.30
2016,07,13,00,54,16.30
2016,07,13,00,55,16.30
2016,07,13,00,56,16.30
2016,07,13,00,57,16.30
2016,07,13,00,58,16.30
2016,07,13,00,59,16.30
2016,07,13,01,00,16.30
2016,07,13,01,01,16.30
2016,07,13,01,02,16.30
2016,07,13,01,03,16.40
2016,07,13,01,04,16.40
2016,07,13,01,05,16.40
2016,07,13,01,06,16.40
2016,07,13,01,07,16.50
2016,07,13,01,08,16.50
2016,07,13,01,09,16.50
2016,07,13,01,10,16.50
2016,07,13,01,11,16.50
2016,07,13,01,12,16.50
2016,07,13,01,13,16.40
2016,07,13,01,14,16.40
2016,07,13,01,15,16.40
2016,07,13,01,16,16.40
2016,07,13,01,17,16.40
2016,07,13,01,18,16.40
2016,07,13,01,19,16.40
2016,07,13,01,20,16.40
2016,07,13,01,21,16.30
2016,07,13,01,22,16.30
2016,07,13,01,23,16.30
2016,07,13,01,24,16.30
2016,07,13,01,25,16.30
2016,07,13,01,26,16.30
2016,07,13,01,27,16.30
2016,07,13,01,28,16.30
2016,07,13,01,29,16.30
2016,07,13,01,30,16.30
2016,07,13,01,31,16.30
2016,07,13,01,32,16.30
2016,07,13,01,33,16.20
2016,07,13,01,34,16.20
2016,07,13,01,35,16.20
2016,07,13,01,36,16.20
2016,07,13,01,37,16.20
2016,07,13,01,38,16.10
2016,07,13,01,39,16.10
2016,07,13,01,40,16.10
2016,07,13,01,41,16.10
2016,07,13,01,42,16.10
2016,07,13,01,43,16.10
2016,07,13,01,44,16.10
2016,07,13,01,45,16.10
2016,07,13,01,46,16.00
2016,07,13,01,47,16.00
2016,07,13,01,48,16.00
2016,07,13,01,49,16.00
2016,07,13,01,50,16.00
2016,07,13,01,51,16.00
2016,07,13,01,52,16.00
2016,07,13,01,53,15.90
2016,07,13,01,54,15.90
2016,07,13,01,55,15.90
2016,07,13,01,56,15.90
2016,07,13,01,57,15.90
2016,07,13,01,58,15.90
2016,07,13,01,59,15.90
2016,07,13,02,00,15.90
2016,07,13,02,01,16.00
2016,07,13,02,02,16.00
2016,07,13,02,03,16.00
2016,07,13,02,04,16.00
2016,07,13,02,05,16.00
2016,07,13,02,06,16.00
2016,07,13,02,07,16.00
2016,07,13,02,08,16.00
2016,07,13,02,09,16.00
2016,07,13,02,10,16.00
2016,07,13,02,11,15.90
2016,07,13,02,12,15.90
2016,07,13,02,13,15.90
2016,07,13,02,14,15.90
2016,07,13,02,15,15.90
2016,07,13,02,16,15.90
2016,07,13,02,17,15.80
2016,07,13,02,18,15.80
2016,07,13,02,19,15.80
2016,07,13,02,20,15.80
2016,07,13,02,21,15.80
2016,07,13,02,22,15.70
2016,07,13,02,23,15.70
2016,07,13,02,24,15.70
2016,07,13,02,25,15.70
2016,07,13,02,26,15.70
2016,07,13,02,27,15.70
2016,07,13,02,28,15.60
2016,07,13,02,29,15.60
2016,07,13,02,30,15.60
2016,07,13,02,31,15.60
2016,07,13,02,32,15.60
2016,07,13,02,33,15.60
2016,07,13,02,34,15.50
2016,07,13,02,35,15.50
2016,07,13,02,36,15.50
2016,07,13,02,37,15.40
2016,07,13,02,38,15.40
2016,07,13,02,39,15.40
2016,07,13,02,40,15.40
2016,07,13,02,41,15.30
2016,07,13,02,42,15.30
2016,07,13,02,43,15.30
2016,07,13,02,44,15.30
2016,07,13,02,45,15.30
2016,07,13,02,46,15.30
2016,07,13,02,47,15.30
2016,07,13,02,48,15.30
2016,07,13,02,49,15.20
2016,07,13,02,50,15.20
2016,07,13,02,51,15.20
2016,07,13,02,52,15.10
2016,07,13,02,53,15.10
2016,07,13,02,54,15.10
2016,07,13,02,55,15.10
2016,07,13,02,56,15.00
2016,07,13,02,57,15.00
2016,07,13,02,58,14.90
2016,07,13,02,59,14.90
2016,07,13,03,00,14.90
2016,07,13,03,01,14.80
2016,07,13,03,02,14.80
2016,07,13,03,03,14.70
2016,07,13,03,04,14.70
2016,07,13,03,05,14.70
2016,07,13,03,06,14.70
2016,07,13,03,07,14.70
2016,07,13,03,08,14.70
2016,07,13,03,09,14.70
2016,07,13,03,10,14.70
2016,07,13,03,11,14.60
2016,07,13,03,12,14.60
2016,07,13,03,13,14.60
2016,07,13,03,14,14.60
2016,07,13,03,15,14.60
2016,07,13,03,16,14.50
2016,07,13,03,17,14.50
2016,07,13,03,18,14.50
2016,07,13,03,19,14.40
2016,07,13,03,20,14.40
2016,07,13,03,21,14.40
2016,07,13,03,22,14.40
2016,07,13,03,23,14.30
2016,07,13,03,24,14.30
2016,07,13,03,25,14.30
2016,07,13,03,26,14.30
2016,07,13,03,27,14.30
2016,07,13,03,28,14.30
2016,07,13,03,29,14.30
2016,07,13,03,30,14.30
2016,07,13,03,31,14.30
2016,07,13,03,32,14.30
2016,07,13,03,33,14.30
2016,07,13,03,34,14.30
2016,07,13,03,35,14.30
2016,07,13,03,36,14.30
2016,07,13,03,37,14.30
2016,07,13,03,38,14.30
2016,07,13,03,39,14.20
2016,07,13,03,40,14.20
2016,07,13,03,41,14.20
2016,07,13,03,42,14.20
2016,07,13,03,43,14.20
2016,07,13,03,44,14.20
2016,07,13,03,45,14.20
2016,07,13,03,46,14.20
2016,07,13,03,47,14.10
2016,07,13,03,48,14.10
2016,07,13,03,49,14.10
2016,07,13,03,50,14.10
2016,07,13,03,51,14.10
2016,07,13,03,52,14.00
2016,07,13,03,53,14.00
2016,07,13,03,54,14.00
2016,07,13,03,55,14.00
2016,07,13,03,56,14.00
2016,07,13,03,57,13.90
2016,07,13,03,58,13.90
2016,07,13,03,59,13.90
2016,07,13,04,00,13.90
2016,07,13,04,01,13.90
2016,07,13,04,02,13.90
2016,07,13,04,03,13.90
2016,07,13,04,04,13.90
2016,07,13,04,05,13.90
2016,07,13,04,06,13.90
2016,07,13,04,07,13.80
2016,07,13,04,08,13.80
2016,07,13,04,09,13.80
2016,07,13,04,10,13.80
2016,07,13,04,11,13.80
2016,07,13,04,12,13.80
2016,07,13,04,13,13.80
2016,07,13,04,14,13.80
2016,07,13,04,15,13.80
2016,07,13,04,16,13.70
2016,07,13,04,17,13.70
2016,07,13,04,18,13.70
2016,07,13,04,19,13.70
2016,07,13,04,20,13.70
2016,07,13,04,21,13.70
2016,07,13,04,22,13.70
2016,07,13,04,23,13.70
2016,07,13,04,24,13.70
2016,07,13,04,25,13.80
2016,07,13,04,26,13.80
2016,07,13,04,27,13.80
2016,07,13,04,28,13.80
2016,07,13,04,29,13.80
2016,07,13,04,30,13.80
2016,07,13,04,31,13.80
2016,07,13,04,32,13.80
2016,07,13,04,33,13.90
2016,07,13,04,34,13.90
2016,07,13,04,35,13.90
2016,07,13,04,36,13.90
2016,07,13,04,37,13.90
2016,07,13,04,38,13.90
2016,07,13,04,39,13.90
2016,07,13,04,40,13.90
2016,07,13,04,41,14.00
2016,07,13,04,42,14.00
2016,07,13,04,43,14.00
2016,07,13,04,44,14.00
2016,07,13,04,45,14.00
2016,07,13,04,46,14.00
2016,07,13,04,47,14.00
2016,07,13,04,48,14.00
2016,07,13,04,49,14.00
2016,07,13,04,50,14.00
2016,07,13,04,51,14.00
2016,07,13,04,52,13.90
2016,07,13,04,53,13.90
2016,07,13,04,54,13.90
2016,07,13,04,55,13.90
2016,07,13,04,56,13.90
2016,07,13,04,57,13.90
2016,07,13,04,58,13.90
2016,07,13,04,59,13.90
2016,07,13,05,00,13.90
2016,07,13,05,01,13.90
2016,07,13,05,02,13.90
2016,07,13,05,03,14.00
2016,07,13,05,04,14.00
2016,07,13,05,05,14.10
2016,07,13,05,06,14.10
2016,07,13,05,07,14.20
2016,07,13,05,08,14.20
2016,07,13,05,09,14.20
2016,07,13,05,10,14.20
2016,07,13,05,11,14.30
2016,07,13,05,12,14.30
2016,07,13,05,13,14.30
2016,07,13,05,14,14.30
2016,07,13,05,15,14.30
2016,07,13,05,16,14.30
2016,07,13,05,17,14.30
2016,07,13,05,18,14.40
2016,07,13,05,19,14.40
2016,07,13,05,20,14.40
2016,07,13,05,21,14.40
2016,07,13,05,22,14.50
2016,07,13,05,23,14.50
2016,07,13,05,24,14.50
2016,07,13,05,25,14.50
2016,07,13,05,26,14.60
2016,07,13,05,27,14.60
2016,07,13,05,28,14.60
2016,07,13,05,29,14.60
2016,07,13,05,30,14.60
2016,07,13,05,31,14.60
2016,07,13,05,32,14.60
2016,07,13,05,33,14.60
2016,07,13,05,34,14.60
2016,07,13,05,35,14.60
2016,07,13,05,36,14.70
2016,07,13,05,37,14.60
2016,07,13,05,38,14.60
2016,07,13,05,39,14.60
2016,07,13,05,40,14.60
2016,07,13,05,41,14.60
2016,07,13,05,42,14.60
2016,07,13,05,43,14.60
2016,07,13,05,44,14.60
2016,07,13,05,45,14.60
2016,07,13,05,46,14.60
2016,07,13,05,47,14.60
2016,07,13,05,48,14.60
2016,07,13,05,49,14.60
2016,07,13,05,50,14.50
2016,07,13,05,51,14.50
2016,07,13,05,52,14.50
2016,07,13,05,53,14.50
2016,07,13,05,54,14.50
2016,07,13,05,55,14.40
2016,07,13,05,56,14.40
2016,07,13,05,57,14.40
2016,07,13,05,58,14.40
2016,07,13,05,59,14.40
2016,07,13,06,00,14.40
2016,07,13,06,01,14.40
2016,07,13,06,02,14.40
2016,07,13,06,03,14.40
2016,07,13,06,04,14.40
2016,07,13,06,05,14.40
2016,07,13,06,06,14.40
2016,07,13,06,07,14.40
2016,07,13,06,08,14.40
2016,07,13,06,09,14.40
2016,07,13,06,10,14.30
2016,07,13,06,11,14.30
2016,07,13,06,12,14.30
2016,07,13,06,13,14.30
2016,07,13,06,14,14.30
2016,07,13,06,15,14.30
2016,07,13,06,16,14.30
2016,07,13,06,17,14.30
2016,07,13,06,18,14.30
2016,07,13,06,19,14.30
2016,07,13,06,20,14.30
2016,07,13,06,21,14.30
2016,07,13,06,22,14.30
2016,07,13,06,23,14.30
2016,07,13,06,24,14.30
2016,07,13,06,25,14.30
2016,07,13,06,26,14.20
2016,07,13,06,27,14.20
2016,07,13,06,28,14.20
2016,07,13,06,29,14.20
2016,07,13,06,30,14.20
2016,07,13,06,31,14.20
2016,07,13,06,32,14.20
2016,07,13,06,33,14.20
2016,07,13,06,34,14.20
2016,07,13,06,35,14.20
2016,07,13,06,36,14.20
2016,07,13,06,37,14.20
2016,07,13,06,38,14.20
2016,07,13,06,39,14.20
2016,07,13,06,40,14.20
2016,07,13,06,41,14.20
2016,07,13,06,42,14.20
2016,07,13,06,43,14.20
2016,07,13,06,44,14.20
2016,07,13,06,45,14.20
2016,07,13,06,46,14.30
2016,07,13,06,47,14.30
2016,07,13,06,48,14.30
2016,07,13,06,49,14.30
2016,07,13,06,50,14.30
2016,07,13,06,51,14.30
2016,07,13,06,52,14.30
2016,07,13,06,53,14.30
2016,07,13,06,54,14.40
2016,07,13,06,55,14.40
2016,07,13,06,56,14.40
2016,07,13,06,57,14.40
2016,07,13,06,58,14.40
2016,07,13,06,59,14.50
2016,07,13,07,00,14.50
2016,07,13,07,01,14.50
2016,07,13,07,02,14.50
2016,07,13,07,03,14.60
2016,07,13,07,04,14.60
2016,07,13,07,05,14.60
2016,07,13,07,06,14.60
2016,07,13,07,07,14.60
2016,07,13,07,08,14.70
2016,07,13,07,09,14.70
2016,07,13,07,10,14.70
2016,07,13,07,11,14.80
2016,07,13,07,12,14.80
2016,07,13,07,13,14.80
2016,07,13,07,14,14.90
2016,07,13,07,15,14.90
2016,07,13,07,16,15.00
2016,07,13,07,17,15.00
2016,07,13,07,18,15.10
2016,07,13,07,19,15.10
2016,07,13,07,20,15.10
2016,07,13,07,21,15.20
2016,07,13,07,22,15.20
2016,07,13,07,23,15.30
2016,07,13,07,24,15.30
2016,07,13,07,25,15.40
2016,07,13,07,26,15.40
2016,07,13,07,27,15.40
2016,07,13,07,28,15.50
2016,07,13,07,29,15.60
2016,07,13,07,30,15.60
2016,07,13,07,31,15.60
2016,07,13,07,32,15.70
2016,07,13,07,33,15.70
2016,07,13,07,34,15.70
2016,07,13,07,35,15.70
2016,07,13,07,36,15.80
2016,07,13,07,37,15.80
2016,07,13,07,38,15.80
2016,07,13,07,39,15.80
2016,07,13,07,40,15.80
2016,07,13,07,41,15.80
2016,07,13,07,42,15.80
2016,07,13,07,43,15.80
2016,07,13,07,44,15.80
2016,07,13,07,45,15.80
2016,07,13,07,46,15.80
2016,07,13,07,47,15.80
2016,07,13,07,48,15.80
2016,07,13,07,49,15.80
2016,07,13,07,50,15.90
2016,07,13,07,51,15.90
2016,07,13,07,52,16.00
2016,07,13,07,53,16.00
2016,07,13,07,54,16.10
2016,07,13,07,55,16.10
2016,07,13,07,56,16.10
2016,07,13,07,57,16.10
2016,07,13,07,58,16.10
2016,07,13,07,59,16.00
2016,07,13,08,00,16.00
2016,07,13,08,01,16.00
2016,07,13,08,02,16.00
2016,07,13,08,03,16.10
2016,07,13,08,04,16.10
2016,07,13,08,05,16.10
2016,07,13,08,06,16.10
2016,07,13,08,07,16.20
2016,07,13,08,08,16.20
2016,07,13,08,09,16.20
2016,07,13,08,10,16.20
2016,07,13,08,11,16.20
2016,07,13,08,12,16.20
2016,07,13,08,13,16.30
2016,07,13,08,14,16.30
2016,07,13,08,15,16.30
2016,07,13,08,16,16.30
2016,07,13,08,17,16.30
2016,07,13,08,18,16.40
2016,07,13,08,19,16.30
2016,07,13,08,20,16.40
2016,07,13,08,21,16.40
2016,07,13,08,22,16.40
2016,07,13,08,23,16.40
2016,07,13,08,24,16.40
2016,07,13,08,25,16.40
2016,07,13,08,26,16.40
2016,07,13,08,27,16.50
2016,07,13,08,28,16.50
2016,07,13,08,29,16.50
2016,07,13,08,30,16.50
2016,07,13,08,31,16.50
2016,07,13,08,32,16.60
2016,07,13,08,33,16.60
2016,07,13,08,34,16.60
2016,07,13,08,35,16.70
2016,07,13,08,36,16.70
2016,07,13,08,37,16.80
2016,07,13,08,38,16.80
2016,07,13,08,39,16.80
2016,07,13,08,40,16.90
2016,07,13,08,41,17.00
2016,07,13,08,42,17.10
2016,07,13,08,43,17.20
2016,07,13,08,44,17.30
2016,07,13,08,45,17.30
2016,07,13,08,46,17.30
2016,07,13,08,47,17.30
2016,07,13,08,48,17.30
2016,07,13,08,49,17.40
2016,07,13,08,50,17.40
2016,07,13,08,51,17.50
2016,07,13,08,52,17.50
2016,07,13,08,53,17.60
2016,07,13,08,54,17.60
2016,07,13,08,55,17.70
2016,07,13,08,56,17.70
2016,07,13,08,57,17.80
2016,07,13,08,58,17.90
2016,07,13,08,59,18.00
2016,07,13,09,00,18.20
2016,07,13,09,01,18.20
2016,07,13,09,02,18.20
2016,07,13,09,03,18.30
2016,07,13,09,04,18.30
2016,07,13,09,05,18.30
2016,07,13,09,06,18.30
2016,07,13,09,07,18.20
2016,07,13,09,08,18.20
2016,07,13,09,09,18.20
2016,07,13,09,10,18.20
2016,07,13,09,11,18.30
2016,07,13,09,12,18.30
2016,07,13,09,13,18.30
2016,07,13,09,14,18.30
2016,07,13,09,15,18.40
2016,07,13,09,16,18.40
2016,07,13,09,17,18.40
2016,07,13,09,18,18.50
2016,07,13,09,19,18.60
2016,07,13,09,20,18.70
2016,07,13,09,21,18.70
2016,07,13,09,22,18.80
2016,07,13,09,23,18.90
2016,07,13,09,24,19.00
2016,07,13,09,25,19.10
2016,07,13,09,26,19.20
2016,07,13,09,27,19.20
2016,07,13,09,28,19.30
2016,07,13,09,29,19.40
2016,07,13,09,30,19.50
2016,07,13,09,31,19.50
2016,07,13,09,32,19.60
2016,07,13,09,33,19.60
2016,07,13,09,34,19.60
2016,07,13,09,35,19.50
2016,07,13,09,36,19.40
2016,07,13,09,37,19.30
2016,07,13,09,38,19.20
2016,07,13,09,39,19.10
2016,07,13,09,40,19.00
2016,07,13,09,41,19.00
2016,07,13,09,42,19.00
2016,07,13,09,43,19.10
2016,07,13,09,44,19.10
2016,07,13,09,45,19.20
2016,07,13,09,46,19.20
2016,07,13,09,47,19.30
2016,07,13,09,48,19.30
2016,07,13,09,49,19.40
2016,07,13,09,50,19.40
2016,07,13,09,51,19.30
2016,07,13,09,52,19.30
2016,07,13,09,53,19.20
2016,07,13,09,54,19.10
2016,07,13,09,55,19.10
2016,07,13,09,56,19.10
2016,07,13,09,57,19.00
2016,07,13,09,58,19.00
2016,07,13,09,59,19.00
2016,07,13,10,00,19.00
2016,07,13,10,01,19.10
2016,07,13,10,02,19.10
2016,07,13,10,03,19.10
2016,07,13,10,04,19.20
2016,07,13,10,05,19.20
2016,07,13,10,06,19.20
2016,07,13,10,07,19.30
2016,07,13,10,08,19.30
2016,07,13,10,09,19.40
2016,07,13,10,10,19.40
2016,07,13,10,11,19.50
2016,07,13,10,12,19.50
2016,07,13,10,13,19.60
2016,07,13,10,14,19.70
2016,07,13,10,15,19.60
2016,07,13,10,16,19.60
2016,07,13,10,17,19.60
2016,07,13,10,18,19.60
2016,07,13,10,19,19.60
2016,07,13,10,20,19.60
2016,07,13,10,21,19.60
2016,07,13,10,22,19.60
2016,07,13,10,23,19.50
2016,07,13,10,24,19.50
2016,07,13,10,25,19.50
2016,07,13,10,26,19.50
2016,07,13,10,27,19.50
2016,07,13,10,28,19.60
2016,07,13,10,29,19.60
2016,07,13,10,30,19.60
2016,07,13,10,31,19.60
2016,07,13,10,32,19.60
2016,07,13,10,33,19.70
2016,07,13,10,34,19.70
2016,07,13,10,35,19.80
2016,07,13,10,36,19.90
2016,07,13,10,37,20.00
2016,07,13,10,38,20.00
2016,07,13,10,39,20.00
2016,07,13,10,40,20.00
2016,07,13,10,41,20.00
2016,07,13,10,42,19.90
2016,07,13,10,43,19.90
2016,07,13,10,44,19.90
2016,07,13,10,45,19.90
2016,07,13,10,46,19.90
2016,07,13,10,47,19.90
2016,07,13,10,48,20.00
2016,07,13,10,49,20.00
2016,07,13,10,50,20.10
2016,07,13,10,51,20.10
2016,07,13,10,52,20.00
2016,07,13,10,53,20.00
2016,07,13,10,54,20.00
2016,07,13,10,55,20.10
2016,07,13,10,56,20.10
2016,07,13,10,57,20.10
2016,07,13,10,58,20.10
2016,07,13,10,59,20.00
2016,07,13,11,00,19.90
2016,07,13,11,01,19.90
2016,07,13,11,02,19.80
2016,07,13,11,03,19.80
2016,07,13,11,04,19.80
2016,07,13,11,05,19.80
2016,07,13,11,06,19.80
2016,07,13,11,07,19.70
2016,07,13,11,08,19.70
2016,07,13,11,09,19.70
2016,07,13,11,10,19.70
2016,07,13,11,11,19.70
2016,07,13,11,12,19.70
2016,07,13,11,13,19.70
2016,07,13,11,14,19.70
2016,07,13,11,15,19.70
2016,07,13,11,16,19.70
2016,07,13,11,17,19.70
2016,07,13,11,18,19.70
2016,07,13,11,19,19.70
2016,07,13,11,20,19.70
2016,07,13,11,21,19.80
2016,07,13,11,22,19.80
2016,07,13,11,23,19.80
2016,07,13,11,24,19.90
2016,07,13,11,25,20.00
2016,07,13,11,26,20.10
2016,07,13,11,27,20.10
2016,07,13,11,28,20.10
2016,07,13,11,29,20.10
2016,07,13,11,30,20.20
2016,07,13,11,31,20.20
2016,07,13,11,32,20.20
2016,07,13,11,33,20.20
2016,07,13,11,34,20.20
2016,07,13,11,35,20.30
2016,07,13,11,36,20.30
2016,07,13,11,37,20.30
2016,07,13,11,38,20.30
2016,07,13,11,39,20.30
2016,07,13,11,40,20.30
2016,07,13,11,41,20.30
2016,07,13,11,42,20.30
2016,07,13,11,43,20.30
2016,07,13,11,44,20.30
2016,07,13,11,45,20.40
2016,07,13,11,46,20.50
2016,07,13,11,47,20.50
2016,07,13,11,48,20.50
2016,07,13,11,49,20.50
2016,07,13,11,50,20.50
2016,07,13,11,51,20.50
2016,07,13,11,52,20.50
2016,07,13,11,53,20.50
2016,07,13,11,54,20.50
2016,07,13,11,55,20.60
2016,07,13,11,56,20.60
2016,07,13,11,57,20.60
2016,07,13,11,58,20.60
2016,07,13,11,59,20.60
2016,07,13,12,00,20.50
2016,07,13,12,01,20.50
2016,07,13,12,02,20.50
2016,07,13,12,03,20.50
2016,07,13,12,04,20.60
2016,07,13,12,05,20.60
2016,07,13,12,06,20.80
2016,07,13,12,07,20.80
2016,07,13,12,08,20.90
2016,07,13,12,09,20.90
2016,07,13,12,10,21.00
2016,07,13,12,11,21.00
2016,07,13,12,12,21.10
2016,07,13,12,13,21.10
2016,07,13,12,14,21.10
2016,07,13,12,15,21.10
2016,07,13,12,16,21.10
2016,07,13,12,17,21.10
2016,07,13,12,18,21.20
2016,07,13,12,19,21.20
2016,07,13,12,20,21.20
2016,07,13,12,21,21.10
2016,07,13,12,22,21.00
2016,07,13,12,23,20.90
2016,07,13,12,24,20.90
2016,07,13,12,25,20.90
2016,07,13,12,26,20.90
2016,07,13,12,27,20.90
2016,07,13,12,28,20.90
2016,07,13,12,29,20.90
2016,07,13,12,30,20.90
2016,07,13,12,31,20.90
2016,07,13,12,32,20.90
2016,07,13,12,33,20.90
2016,07,13,12,34,20.90
2016,07,13,12,35,21.00
2016,07,13,12,36,21.00
2016,07,13,12,37,20.90
2016,07,13,12,38,21.00
2016,07,13,12,39,21.10
2016,07,13,12,40,21.10
2016,07,13,12,41,21.20
2016,07,13,12,42,21.30
2016,07,13,12,43,21.30
2016,07,13,12,44,21.30
2016,07,13,12,45,21.30
2016,07,13,12,46,21.40
2016,07,13,12,47,21.40
2016,07,13,12,48,21.40
2016,07,13,12,49,21.40
2016,07,13,12,50,21.40
2016,07,13,12,51,21.40
2016,07,13,12,52,21.30
2016,07,13,12,53,21.30
2016,07,13,12,54,21.30
2016,07,13,12,55,21.30
2016,07,13,12,56,21.30
2016,07,13,12,57,21.30
2016,07,13,12,58,21.20
2016,07,13,12,59,21.20
2016,07,13,13,00,21.20
2016,07,13,13,01,21.20
2016,07,13,13,02,21.20
2016,07,13,13,03,21.20
2016,07,13,13,04,21.20
2016,07,13,13,05,21.20
2016,07,13,13,06,21.30
2016,07,13,13,07,21.30
2016,07,13,13,08,21.30
2016,07,13,13,09,21.30
2016,07,13,13,10,21.30
2016,07,13,13,11,21.20
2016,07,13,13,12,21.20
2016,07,13,13,13,21.20
2016,07,13,13,14,21.10
2016,07,13,13,15,21.10
2016,07,13,13,16,21.10
2016,07,13,13,17,21.20
2016,07,13,13,18,21.20
2016,07,13,13,19,21.20
2016,07,13,13,20,21.20
2016,07,13,13,21,21.20
2016,07,13,13,22,21.30
2016,07,13,13,23,21.40
2016,07,13,13,24,21.50
2016,07,13,13,25,21.50
2016,07,13,13,26,21.60
2016,07,13,13,27,21.60
2016,07,13,13,28,21.60
2016,07,13,13,29,21.50
2016,07,13,13,30,21.40
2016,07,13,13,31,21.30
2016,07,13,13,32,21.20
2016,07,13,13,33,21.20
2016,07,13,13,34,21.10
2016,07,13,13,35,21.10
2016,07,13,13,36,21.10
2016,07,13,13,37,21.10
2016,07,13,13,38,21.10
2016,07,13,13,39,21.10
2016,07,13,13,40,21.20
2016,07,13,13,41,21.30
2016,07,13,13,42,21.40
2016,07,13,13,43,21.40
2016,07,13,13,44,21.40
2016,07,13,13,45,21.40
2016,07,13,13,46,21.40
2016,07,13,13,47,21.30
2016,07,13,13,48,21.30
2016,07,13,13,49,21.30
2016,07,13,13,50,21.30
2016,07,13,13,51,21.40
2016,07,13,13,52,21.40
2016,07,13,13,53,21.50
2016,07,13,13,54,21.60
2016,07,13,13,55,21.70
2016,07,13,13,56,21.80
2016,07,13,13,57,21.90
2016,07,13,13,58,21.90
2016,07,13,13,59,22.00
2016,07,13,14,00,22.10
2016,07,13,14,01,22.10
2016,07,13,14,02,22.20
2016,07,13,14,03,22.20
2016,07,13,14,04,22.20
2016,07,13,14,05,22.20
2016,07,13,14,06,22.20
2016,07,13,14,07,22.10
2016,07,13,14,08,22.00
2016,07,13,14,09,22.00
2016,07,13,14,10,22.10
2016,07,13,14,11,22.10
2016,07,13,14,12,22.10
2016,07,13,14,13,22.20
2016,07,13,14,14,22.20
2016,07,13,14,15,22.20
2016,07,13,14,16,22.20
2016,07,13,14,17,22.20
2016,07,13,14,18,22.20
2016,07,13,14,19,22.20
2016,07,13,14,20,22.20
2016,07,13,14,21,22.30
2016,07,13,14,22,22.30
2016,07,13,14,23,22.40
2016,07,13,14,24,22.40
2016,07,13,14,25,22.30
2016,07,13,14,26,22.10
2016,07,13,14,27,22.10
2016,07,13,14,28,22.00
2016,07,13,14,29,21.90
2016,07,13,14,30,21.80
2016,07,13,14,31,21.80
2016,07,13,14,32,21.70
2016,07,13,14,33,21.70
2016,07,13,14,34,21.70
2016,07,13,14,35,21.70
2016,07,13,14,36,21.60
2016,07,13,14,37,21.60
2016,07,13,14,38,21.50
2016,07,13,14,39,21.50
2016,07,13,14,40,21.50
2016,07,13,14,41,21.50
2016,07,13,14,42,21.50
2016,07,13,14,43,21.60
2016,07,13,14,44,21.60
2016,07,13,14,45,21.70
2016,07,13,14,46,21.70
2016,07,13,14,47,21.80
2016,07,13,14,48,21.80
2016,07,13,14,49,21.80
2016,07,13,14,50,21.90
2016,07,13,14,51,21.90
2016,07,13,14,52,21.90
2016,07,13,14,53,21.80
2016,07,13,14,54,21.80
2016,07,13,14,55,21.70
2016,07,13,14,56,21.70
2016,07,13,14,57,21.70
2016,07,13,14,58,21.70
2016,07,13,14,59,21.70
2016,07,13,15,00,21.60
2016,07,13,15,01,21.70
2016,07,13,15,02,21.70
2016,07,13,15,03,21.60
2016,07,13,15,04,21.70
2016,07,13,15,05,21.80
2016,07,13,15,06,21.80
2016,07,13,15,07,21.90
2016,07,13,15,08,22.00
2016,07,13,15,09,22.00
2016,07,13,15,10,22.00
2016,07,13,15,11,22.10
2016,07,13,15,12,22.10
2016,07,13,15,13,22.10
2016,07,13,15,14,22.10
2016,07,13,15,15,22.10
2016,07,13,15,16,22.10
2016,07,13,15,17,22.10
2016,07,13,15,18,22.10
2016,07,13,15,19,22.20
2016,07,13,15,20,22.20
2016,07,13,15,21,22.20
2016,07,13,15,22,22.20
2016,07,13,15,23,22.20
2016,07,13,15,24,22.20
2016,07,13,15,25,22.20
2016,07,13,15,26,22.10
2016,07,13,15,27,22.10
2016,07,13,15,28,22.10
2016,07,13,15,29,22.10
2016,07,13,15,30,22.10
2016,07,13,15,31,22.10
2016,07,13,15,32,22.10
2016,07,13,15,33,22.10
2016,07,13,15,34,22.10
2016,07,13,15,35,22.10
2016,07,13,15,36,22.00
2016,07,13,15,37,22.00
2016,07,13,15,38,21.90
2016,07,13,15,39,21.90
2016,07,13,15,40,22.00
2016,07,13,15,41,22.00
2016,07,13,15,42,22.10
2016,07,13,15,43,22.10
2016,07,13,15,44,22.20
2016,07,13,15,45,22.30
2016,07,13,15,46,22.40
2016,07,13,15,47,22.40
2016,07,13,15,48,22.50
2016,07,13,15,49,22.50
2016,07,13,15,50,22.50
2016,07,13,15,51,22.40
2016,07,13,15,52,22.40
2016,07,13,15,53,22.40
2016,07,13,15,54,22.30
2016,07,13,15,55,22.30
2016,07,13,15,56,22.30
2016,07,13,15,57,22.30
2016,07,13,15,58,22.30
2016,07,13,15,59,22.40
2016,07,13,16,00,22.40
2016,07,13,16,01,22.40
2016,07,13,16,02,22.40
2016,07,13,16,03,22.30
2016,07,13,16,04,22.20
2016,07,13,16,05,22.10
2016,07,13,16,06,22.00
2016,07,13,16,07,22.00
2016,07,13,16,08,22.10
2016,07,13,16,09,22.10
2016,07,13,16,10,22.10
2016,07,13,16,11,22.10
2016,07,13,16,12,22.10
2016,07,13,16,13,22.00
2016,07,13,16,14,21.90
2016,07,13,16,15,21.90
2016,07,13,16,16,21.80
2016,07,13,16,17,21.80
2016,07,13,16,18,21.80
2016,07,13,16,19,21.80
2016,07,13,16,20,21.80
2016,07,13,16,21,21.90
2016,07,13,16,22,21.90
2016,07,13,16,23,21.90
2016,07,13,16,24,21.90
2016,07,13,16,25,21.80
2016,07,13,16,26,21.80
2016,07,13,16,27,21.80
2016,07,13,16,28,21.80
2016,07,13,16,29,21.90
2016,07,13,16,30,21.90
2016,07,13,16,31,21.90
2016,07,13,16,32,21.90
2016,07,13,16,33,21.90
2016,07,13,16,34,22.00
2016,07,13,16,35,22.00
2016,07,13,16,36,21.90
2016,07,13,16,37,21.90
2016,07,13,16,38,21.80
2016,07,13,16,39,21.80
2016,07,13,16,40,21.70
2016,07,13,16,41,21.70
2016,07,13,16,42,21.60
2016,07,13,16,43,21.60
2016,07,13,16,44,21.50
2016,07,13,16,45,21.50
2016,07,13,16,46,21.50
2016,07,13,16,47,21.50
2016,07,13,16,48,21.60
2016,07,13,16,49,21.60
2016,07,13,16,50,21.60
2016,07,13,16,51,21.60
2016,07,13,16,52,21.60
2016,07,13,16,53,21.70
2016,07,13,16,54,21.70
2016,07,13,16,55,21.70
2016,07,13,16,56,21.70
2016,07,13,16,57,21.80
2016,07,13,16,58,21.80
2016,07,13,16,59,21.80
2016,07,13,17,00,21.90
2016,07,13,17,01,21.90
2016,07,13,17,02,21.90
2016,07,13,17,03,22.00
2016,07,13,17,04,22.00
2016,07,13,17,05,22.00
2016,07,13,17,06,22.00
2016,07,13,17,07,22.00
2016,07,13,17,08,22.10
2016,07,13,17,09,22.10
2016,07,13,17,10,22.10
2016,07,13,17,11,22.10
2016,07,13,17,12,22.20
2016,07,13,17,13,22.20
2016,07,13,17,14,22.10
2016,07,13,17,15,22.10
2016,07,13,17,16,22.10
2016,07,13,17,17,22.00
2016,07,13,17,18,22.00
2016,07,13,17,19,21.90